Regional Weather Roundup
Issued by NWS Kansas City/Pleasant Hill, MO

Home | Current Version | Previous Version | Graphics & Text | Print | Product List | Glossary Off
Versions: 1 2 3 4 5 6 7 8 9 10 11 12 13 14 15 16 17 18 19 20 21 22 23 24 25 26 27 28 29 30 31 32 33 34 35 36 37 38 39 40 41 42 43 44 45 46 47 48 49 50

000
ASUS43 KEAX 281910
RWREAX

WEATHER ROUNDUP FOR EASTERN KANSAS AND NORTHWEST MISSOURI
NATIONAL WEATHER SERVICE KANSAS CITY/PLEASANT HILL MO
200 PM CDT FRI AUG 28 2015

KSZ040-057-103>105-MOZ028-029-037-043-282000-
...KANSAS CITY METROPOLITAN AREA...

CITY           SKY/WX    TMP DP  RH WIND       PRES   REMARKS
K.C. INTL      PTSUNNY   77  65  66 S17       29.92F
K.C. DOWNTOWN  PTSUNNY   80  67  64 S16G22    29.93F
LEES SUMMIT    CLOUDY    75  65  70 S15G23    29.96F
OLATHE - IXD   PTSUNNY   76  67  73 S15       29.94F
OLATHE - OJC   CLOUDY    74  67  78 S17G25    29.94F
LAWRENCE       PTSUNNY   79  67  66 S14G23    29.91F

$$

MOZ001>008-011>017-020>025-030>033-038>040-044>046-053-054-282000-
...NORTHERN AND CENTRAL MISSOURI...

CITY           SKY/WX    TMP DP  RH WIND       PRES   REMARKS
ST. JOSEPH     PTSUNNY   80  68  66 S17G24    29.89F
MOSBY          MOCLDY    77  64  65 SE10G20   29.93F
WARRENSBURG    CLOUDY    77  64  65 S12G20    29.97F
WHITEMAN AFB   PTSUNNY   78  66  66 S16       29.98F
CLINTON          N/A     79  66  65 S12       30.01F
SEDALIA        CLOUDY    79  65  62 S13       30.03S
WARSAW         NOT AVBL
CHILLICOTHE      N/A     76  66  71 S10       29.97F
KIRKSVILLE     CLOUDY    73  62  68 S14       30.01F

$$

MOZ041-047>049-056>058-063>065-088>090-097-282000-
...EASTERN AND SOUTHERN MISSOURI...

CITY           SKY/WX    TMP DP  RH WIND       PRES   REMARKS
ST. LOUIS INTL CLOUDY    81  58  45 SE15      30.08F
SPIRIT OF STL  CLOUDY    79  62  56 SE10      30.06F
COLUMBIA       CLOUDY    76  64  66 SE12      30.04F
JEFFERSON CITY CLOUDY    80  61  52 SE10      30.03F
ROLLA          PTSUNNY   78  61  55 SE16      30.05F
OSAGE BEACH    CLOUDY    79  63  57 SE7       30.05F
SPRINGFIELD    CLOUDY    77  61  57 S14       30.04F
BRANSON        PTSUNNY   81  63  54 SE9       30.07F
JOPLIN         CLOUDY    78  66  66 S13       30.00F
WEST PLAINS    MOSUNNY   78  58  49 SE7       30.10F

$$

IAZ060-094-KSZ022-034>040-054-083-096-NEZ052-066-093-282000-
...KANSAS...SOUTHEAST NEBRASKA AND IOWA...

CITY           SKY/WX    TMP DP  RH WIND       PRES   REMARKS
TOPEKA         MOSUNNY   83  68  60 S15G23    29.88F
MANHATTAN      CLOUDY    84  69  60 SW10      29.86F
EMPORIA        SUNNY     81  67  62 S20G28    29.91F
CHANUTE        PTSUNNY   73  66  78 S15       29.97F
WICHITA        MOSUNNY   86  68  54 SW12      29.91F
OMAHA          CLOUDY    77  70  79 S9        29.82F
LINCOLN        CLOUDY    80  67  64 NW14      29.86F
FALLS CITY     CLOUDY    82  69  64 S12       29.85F
LAMONI         PTSUNNY   77  67  71 S13G30    29.91F
DES MOINES     CLOUDY    71  65  81 S14       29.87F

$$




USA.gov is the U.S. government's official web portal to all federal, state and local government web resources and services.